EW0150 Weather Reports


time (UTC)temp
C
wind
direction
speed
KPH
gust
KPH
rain 1hr
cm
rain 24hr
cm
rain mn
cm
humidity
%
barometer
mb
20260903161003 21 302 8.0 16.1 0.00 0.00 0.00 57 1017.3
20260903160010 22 276 8.0 14.5 0.00 0.00 0.00 57 1017.4
20260903155005 22 314 6.4 11.3 0.00 0.00 0.00 55 1017.3
20260903154007 22 270 8.0 14.5 0.00 0.00 0.00 56 1017.3
20260903153004 21 240 9.7 17.7 0.00 0.00 0.00 57 1017.4
20260903151006 22 264 9.7 16.1 0.00 0.00 0.00 55 1017.5
20260903150006 22 263 8.0 16.1 0.00 0.00 0.00 55 1017.5
20260903145005 22 269 8.0 16.1 0.00 0.00 0.00 57 1017.7
20260903144005 22 270 8.0 16.1 0.00 0.00 0.00 55 1017.7
20260903143005 22 304 9.7 17.7 0.00 0.00 0.00 56 1017.7
20260903142004 22 296 12.9 20.9 0.00 0.00 0.00 54 1017.8
20260903141006 22 265 12.9 17.7 0.00 0.00 0.00 55 1017.9
20260903135005 22 306 9.7 17.7 0.00 0.00 0.00 54 1017.8
20260903134005 22 275 11.3 19.3 0.00 0.00 0.00 57 1017.9
20260903133007 22 303 8.0 16.1 0.00 0.00 0.00 56 1018.0
20260903132005 22 294 6.4 16.1 0.00 0.00 0.00 55 1017.9
20260903131006 22 285 4.8 12.9 0.00 0.00 0.00 55 1017.9
20260903125004 22 307 8.0 16.1 0.00 0.00 0.00 56 1018.0
20260903124007 22 291 8.0 17.7 0.00 0.00 0.00 55 1018.1
20260903123004 22 294 8.0 16.1 0.00 0.00 0.00 56 1018.2
20260903122007 22 292 6.4 14.5 0.00 0.00 0.00 56 1018.2
20260903121004 22 283 6.4 14.5 0.00 0.00 0.00 56 1018.3
20260903120010 22 284 9.7 20.9 0.00 0.00 0.00 57 1018.4
20260903115007 22 302 9.7 17.7 0.00 0.00 0.00 59 1018.5
20260903111004 21 249 6.4 16.1 0.00 0.00 0.00 59 1018.6
20260903105004 22 338 8.0 17.7 0.00 0.00 0.00 59 1018.7
20260903103007 22 288 9.7 16.1 0.00 0.00 0.00 57 1018.8
20260903101005 21 118 4.8 11.3 0.00 0.00 0.00 62 1018.8
20260903100006 22 323 8.0 14.5 0.00 0.00 0.00 60 1018.9
20260903094004 21 315 6.4 12.9 0.00 0.00 0.00 58 1019.2
20260903093004 21 190 6.4 14.5 0.00 0.00 0.00 59 1019.2
20260903092007 21 236 4.8 12.9 0.00 0.00 0.00 60 1019.3
20260903091004 21 315 4.8 14.5 0.00 0.00 0.00 61 1019.4
20260903090006 21 248 4.8 11.3 0.00 0.00 0.00 60 1019.6
20260903085006 21 225 4.8 11.3 0.00 0.00 0.00 61 1019.6
20260903084004 20 241 4.8 11.3 0.00 0.00 0.00 64 1019.5
20260903083006 20 208 4.8 8.0 0.00 0.00 0.00 64 1019.6
20260903082006 19 279 4.8 9.7 0.00 0.00 0.00 68 1019.6
20260903081005 20 169 3.2 11.3 0.00 0.00 0.00 69 1019.6
20260903080011 19 171 3.2 11.3 0.00 0.00 0.00 71 1019.6
20260903075004 18 307 3.2 8.0 0.00 0.00 0.00 73 1019.6
20260903074005 18 335 3.2 8.0 0.00 0.00 0.00 73 1019.7
20260903073004 18 226 4.8 9.7 0.00 0.00 0.00 75 1019.6
20260903072004 17 266 4.8 11.3 0.00 0.00 0.00 78 1019.7
20260903071009 17 289 3.2 8.0 0.00 0.00 0.00 79 1019.6
20260903070009 16 288 1.6 4.8 0.00 0.00 0.00 80 1019.6
20260903065006 17 288 1.6 6.4 0.00 0.00 0.00 79 1019.5
20260903064007 16 288 3.2 6.4 0.00 0.00 0.00 81 1019.5
20260903063006 16 286 3.2 6.4 0.00 0.00 0.00 82 1019.5
20260903062004 16 254 1.6 4.8 0.00 0.00 0.00 85 1019.5
20260903061005 15 254 1.6 4.8 0.00 0.00 0.00 86 1019.7
20260903060007 15 254 3.2 8.0 0.00 0.00 0.00 86 1019.8
20260903055008 14 297 0.0 4.8 0.00 0.00 0.00 89 1019.8
20260903054005 13 205 0.0 1.6 0.00 0.00 0.00 90 1019.8
20260903053008 12 205 0.0 3.2 0.00 0.00 0.00 91 1019.7
20260903052005 12 205 1.6 3.2 0.00 0.00 0.00 91 1019.8
20260903051007 12 205 1.6 3.2 0.00 0.00 0.00 92 1019.7
20260903050009 12 205 1.6 3.2 0.00 0.00 0.00 92 1019.6
20260903045006 12 205 3.2 6.4 0.00 0.00 0.00 92 1019.3
20260903044008 12 204 4.8 8.0 0.00 0.00 0.00 92 1019.3
20260903043005 12 164 3.2 8.0 0.00 0.00 0.00 92 1019.2
20260903042007 11 304 1.6 4.8 0.00 0.00 0.00 92 1019.2
20260903041005 11 317 3.2 9.7 0.00 0.00 0.00 93 1019.3
20260903040010 11 173 0.0 3.2 0.00 0.00 0.00 92 1019.2
20260903035006 12 173 3.2 6.4 0.00 0.00 0.00 91 1019.2
20260903034008 12 173 4.8 6.4 0.00 0.00 0.00 92 1019.1
20260903033005 12 172 3.2 6.4 0.00 0.00 0.00 91 1019.0
20260903032007 12 172 1.6 4.8 0.00 0.00 0.00 91 1019.0
20260903031006 13 172 4.8 6.4 0.00 0.00 0.00 91 1019.1
20260903025008 13 310 1.6 4.8 0.00 0.00 0.00 89 1019.3
20260903024005 13 310 3.2 6.4 0.00 0.00 0.00 89 1019.4
20260903022006 13 312 1.6 3.2 0.00 0.00 0.00 88 1019.4
20260903021007 14 312 1.6 6.4 0.00 0.00 0.00 87 1019.4
20260903020007 14 105 1.6 4.8 0.00 0.00 0.00 87 1019.5
20260903015009 14 105 3.2 4.8 0.00 0.00 0.00 88 1019.4
20260903014005 14 105 1.6 3.2 0.00 0.00 0.00 89 1019.4
20260903013006 14 105 1.6 3.2 0.00 0.00 0.00 88 1019.3
20260903012007 14 103 0.0 3.2 0.00 0.00 0.00 88 1019.1
20260903011007 14 103 3.2 4.8 0.00 0.00 0.00 88 1019.0
20260903010009 14 103 3.2 6.4 0.00 0.00 0.00 88 1019.2
20260903005005 15 296 1.6 4.8 0.00 0.00 0.00 87 1019.4
20260903004007 15 296 4.8 9.7 0.00 0.00 0.00 87 1019.4
20260903003004 15 282 6.4 17.7 0.00 0.00 0.00 87 1019.5
20260903002010 14 236 3.2 6.4 0.00 0.00 0.00 88 1019.4
20260903001005 14 152 1.6 3.2 0.00 0.00 0.00 88 1019.3
20260903000007 14 152 1.6 3.2 0.00 0.00 0.00 88 1019.3
20260902235007 14 152 1.6 3.2 0.00 0.00 0.00 88 1019.4
20260902233006 13 152 0.0 1.6 0.00 0.00 0.00 89 1019.4
20260902232005 14 152 1.6 3.2 0.00 0.00 0.00 88 1019.5
20260902230010 14 152 1.6 4.8 0.00 0.00 0.00 87 1019.4
20260902225003 14 152 3.2 4.8 0.00 0.00 0.00 87 1019.5
20260902224005 15 152 3.2 6.4 0.00 0.00 0.00 85 1019.6
20260902223004 14 312 4.8 8.0 0.00 0.00 0.00 86 1019.5
20260902222007 14 298 6.4 12.9 0.00 0.00 0.00 87 1019.4
20260902221004 13 323 3.2 12.9 0.00 0.00 0.00 90 1019.4
20260902220014 13 351 0.0 1.6 0.00 0.00 0.00 89 1019.3
20260902215006 14 351 1.6 3.2 0.00 0.00 0.00 88 1019.3
20260902214006 14 351 1.6 3.2 0.00 0.00 0.00 88 1019.4
20260902213004 14 351 1.6 3.2 0.00 0.00 0.00 89 1019.2
20260902212006 14 351 0.0 0.0 0.00 0.00 0.00 89 1019.1
20260902211004 14 351 0.0 1.6 0.00 0.00 0.00 88 1019.1
20260902210008 15 351 1.6 4.8 0.00 0.00 0.00 85 1019.2
20260902205003 15 351 3.2 3.2 0.00 0.00 0.00 85 1019.2
20260902204007 15 351 1.6 3.2 0.00 0.00 0.00 85 1019.2
20260902203008 16 351 1.6 3.2 0.00 0.00 0.00 85 1019.2
20260902202005 15 351 0.0 0.0 0.00 0.00 0.00 87 1019.2
20260902201005 15 351 0.0 1.6 0.00 0.00 0.00 86 1019.2
20260902200006 16 351 0.0 1.6 0.00 0.00 0.00 85 1019.2
20260902195003 16 351 0.0 3.2 0.00 0.00 0.00 85 1019.2
20260902194009 16 351 1.6 3.2 0.00 0.00 0.00 84 1019.2
20260902192006 16 351 0.0 0.0 0.00 0.00 0.00 83 1019.4
20260902191004 17 351 1.6 3.2 0.00 0.00 0.00 81 1019.4
20260902190006 17 351 1.6 3.2 0.00 0.00 0.00 81 1019.4
20260902185005 17 351 1.6 1.6 0.00 0.00 0.00 81 1019.3
20260902184003 17 351 0.0 0.0 0.00 0.00 0.00 81 1019.4
20260902183003 17 351 0.0 0.0 0.00 0.00 0.00 79 1019.3
20260902181004 17 351 0.0 0.0 0.00 0.00 0.00 76 1019.1
20260902180008 18 351 1.6 3.2 0.00 0.00 0.00 74 1019.1
20260902175004 18 351 3.2 4.8 0.00 0.00 0.00 73 1019.1
20260902174005 19 350 0.0 1.6 0.00 0.00 0.00 71 1019.1
20260902173003 19 350 0.0 1.6 0.00 0.00 0.00 70 1019.0
20260902172006 20 350 1.6 3.2 0.00 0.00 0.00 69 1019.0
20260902171004 20 350 1.6 4.8 0.00 0.00 0.00 68 1018.9
20260902170007 20 350 3.2 4.8 0.00 0.00 0.00 66 1018.9
20260902165003 21 11 4.8 8.0 0.00 0.00 0.00 66 1018.8
20260902163005 21 346 6.4 9.7 0.00 0.00 0.00 62 1018.8
20260902162006 21 316 6.4 9.7 0.00 0.00 0.00 62 1018.8